Greenville, MS

8:37 AM CST on December 12, 2017 (GMT -0600)
Mid Delta Regional

Weather History for KGLH - September, 2011

Change the Weather History Date:

Friday, September 23, 2011

  Actual Average Record
Temperature  
Mean Temperature 67 °F 72 °F  
Max Temperature 80 °F 84 °F 99 °F (1931)
Min Temperature 53 °F 60 °F 42 °F (1982)
Degree Days  
Heating Degree Days 0 0  
Month to date heating degree days 2 0  
Since 1 July heating degree days 2 0  
Cooling Degree Days 2 8  
Month to date cooling degree days 187 257  
Year to date cooling degree days 2341 2036  
Growing Degree Days 18 (Base 50)    
Moisture  
Dew Point 54 °F    
Average Humidity 66    
Maximum Humidity 97    
Minimum Humidity 35    
Precipitation  
Precipitation 0.00 in 0.09 in 2.18 in (2006)
Month to date precipitation 2.87 2.32  
Year to date precipitation 19.89 36.88  
Sea Level Pressure  
Sea Level Pressure 30.08 in    
Wind  
Wind Speed 12 mph (North)    
Max Wind Speed 21 mph    
Max Gust Speed 28 mph    
Visibility 10 miles    
Events      
T = Trace of Precipitation, MM = Missing Value Source: NWS Daily Summary

Daily Weather History Graph

Daily Weather History Graph

Search for Another Location

Airport or City:

Trip Planner

Search our weather history database for the weather conditions in past years. The results will help you decide how hot, cold, wet, or windy it might be!

Date:

Astronomy

Sep. 23, 2011 Rise Set
Actual Time 6:52 AM CDT 6:59 PM CDT
Civil Twilight 6:27 AM CDT 7:24 PM CDT
Nautical Twilight 5:58 AM CDT 7:53 PM CDT
Astronomical Twilight 5:29 AM CDT 8:22 PM CDT
Moon 2:31 AM CDT (9/23) 4:20 PM CDT (9/23)
Length of Visible Light 12h 56m
Length of Day
12h 07m
Waning Crescent, 19% of the Moon is Illuminated
Sep 23
Waning Crescent
Sep 27
New
Oct 3
First Quarter
Oct 11
Full
Oct 19
Last Quarter

Hourly Weather History & Observations

Time (CDT) Temp. Dew Point Humidity Pressure Visibility Wind Dir Wind Speed Gust Speed Precip Events Conditions
12:53 AM 62.1 °F 61.0 °F 96% 30.05 in 10.0 mi North 19.6 mph - 0.04 in   Mostly Cloudy
1:53 AM 62.6 °F 60.8 °F 94% 30.04 in 10.0 mi North 13.8 mph - N/A   Mostly Cloudy
2:53 AM 60.1 °F 59.0 °F 96% 30.06 in 10.0 mi North 16.1 mph - N/A   Partly Cloudy
3:53 AM 60.1 °F 57.9 °F 93% 30.07 in 10.0 mi North 13.8 mph - N/A   Mostly Cloudy
4:53 AM 60.1 °F 57.0 °F 90% 30.08 in 10.0 mi North 13.8 mph - N/A   Mostly Cloudy
5:53 AM 60.1 °F 57.0 °F 90% 30.10 in 10.0 mi North 12.7 mph - N/A   Mostly Cloudy
6:53 AM 60.1 °F 57.9 °F 93% 30.11 in 10.0 mi North 11.5 mph - N/A   Overcast
7:53 AM 60.8 °F 57.2 °F 88% 30.10 in 10.0 mi North 13.8 mph - N/A   Overcast
8:53 AM 62.1 °F 57.9 °F 86% 30.13 in 10.0 mi North 17.3 mph - N/A   Partly Cloudy
9:53 AM 66.0 °F 59.0 °F 78% 30.13 in 10.0 mi North 13.8 mph - N/A   Clear
10:53 AM 69.1 °F 59.0 °F 70% 30.14 in 10.0 mi North 13.8 mph - N/A   Partly Cloudy
11:53 AM 73.0 °F 57.9 °F 59% 30.14 in 10.0 mi North 18.4 mph 23.0 mph N/A   Partly Cloudy
12:53 PM 75.9 °F 48.9 °F 38% 30.11 in 10.0 mi NNE 18.4 mph 24.2 mph N/A   Clear
1:53 PM 78.1 °F 48.9 °F 36% 30.09 in 10.0 mi NNE 19.6 mph 27.6 mph N/A   Clear
2:53 PM 79.0 °F 51.1 °F 38% 30.06 in 10.0 mi North 15.0 mph 27.6 mph N/A   Clear
3:53 PM 79.0 °F 48.9 °F 35% 30.04 in 10.0 mi North 13.8 mph 23.0 mph N/A   Clear
4:53 PM 78.1 °F 48.9 °F 36% 30.04 in 10.0 mi NNE 12.7 mph - N/A   Clear
5:53 PM 77.0 °F 48.0 °F 36% 30.03 in 10.0 mi NNE 12.7 mph - N/A   Clear
6:53 PM 71.1 °F 48.9 °F 45% 30.03 in 10.0 mi North 6.9 mph - N/A   Clear
7:53 PM 64.9 °F 50.0 °F 58% 30.04 in 10.0 mi North 4.6 mph - N/A   Clear
8:53 PM 60.1 °F 51.1 °F 72% 30.05 in 10.0 mi NNW 4.6 mph - N/A   Clear
9:53 PM 59.0 °F 53.1 °F 81% 30.06 in 10.0 mi NNW 4.6 mph - N/A   Clear
10:53 PM 57.9 °F 54.0 °F 87% 30.06 in 10.0 mi NNW 6.9 mph - N/A   Clear
11:53 PM 55.9 °F 54.0 °F 93% 30.05 in 10.0 mi NNW 5.8 mph - N/A   Clear